EZY35JB EGPH-EGKK

Flight info

Callsign EZY35JB
Flight time N/A
Altitude 35000
Route GOSAM P600 FENIK L612 NAVSO DCT ADZOP DCT EGTOC DCT KEPAD L151 DISIT
Aircraft A319/M-SDE3FGHIRWY/LB1

Departure

Time 2026-04-23 13:35
Airport Edinburgh Airport (EGPH)

Arrival

Time N/A
Airport London Gatwick Airport (EGKK)
Time Latitude Longitude Altitude Speed Heading
2026-04-23 13:10 55.94657 -3.36610 117 ft 0 kts 89°
2026-04-23 13:27 55.94657 -3.36615 116 ft 2 kts 89°
2026-04-23 13:27 55.94656 -3.36647 116 ft 3 kts 80°
2026-04-23 13:27 55.94651 -3.36682 112 ft 3 kts 66°
2026-04-23 13:27 55.94641 -3.36713 112 ft 3 kts 46°
2026-04-23 13:28 55.94627 -3.36733 112 ft 3 kts 12°
2026-04-23 13:28 55.94620 -3.36735 115 ft 0 kts 359°
2026-04-23 13:29 55.94621 -3.36735 115 ft 2 kts 359°
2026-04-23 13:30 55.94675 -3.36737 115 ft 12 kts 359°
2026-04-23 13:30 55.94779 -3.36782 116 ft 16 kts 351°
2026-04-23 13:30 55.94903 -3.36812 114 ft 22 kts 328°
2026-04-23 13:30 55.94862 -3.37083 114 ft 28 kts 240°
2026-04-23 13:31 55.94748 -3.37421 115 ft 35 kts 236°
2026-04-23 13:31 55.94638 -3.37749 115 ft 17 kts 242°
2026-04-23 13:31 55.94601 -3.37938 116 ft 14 kts 298°
2026-04-23 13:31 55.94620 -3.37974 116 ft 0 kts 320°
2026-04-23 13:33 55.94725 -3.38059 115 ft 19 kts 11°
2026-04-23 13:33 55.94753 -3.37985 115 ft 0 kts 64°
2026-04-23 13:34 55.94763 -3.37946 114 ft 25 kts 63°
2026-04-23 13:34 55.95003 -3.37246 112 ft 102 kts 59°
2026-04-23 13:34 55.95477 -3.35835 161 ft 155 kts 58°
2026-04-23 13:34 55.95847 -3.34725 524 ft 160 kts 59°
2026-04-23 13:35 55.96622 -3.33269 1199 ft 163 kts 40°
2026-04-23 13:35 55.97857 -3.31346 1841 ft 193 kts 43°
2026-04-23 13:35 55.98558 -3.30219 2206 ft 209 kts 44°
2026-04-23 13:35 56.00266 -3.28184 2854 ft 244 kts 13°
2026-04-23 13:36 56.02002 -3.28454 3417 ft 263 kts 334°
2026-04-23 13:36 56.03356 -3.30630 4273 ft 267 kts 297°
2026-04-23 13:36 56.03741 -3.32696 4915 ft 266 kts 274°
2026-04-23 13:36 56.03582 -3.35965 5917 ft 265 kts 254°
2026-04-23 13:37 56.03029 -3.39163 6954 ft 267 kts 248°
2026-04-23 13:37 56.02392 -3.42269 7898 ft 270 kts 248°
2026-04-23 13:37 56.01758 -3.45464 8842 ft 274 kts 249°
2026-04-23 13:37 56.01165 -3.48740 9754 ft 278 kts 251°
2026-04-23 13:38 56.00615 -3.52087 10632 ft 283 kts 252°
2026-04-23 13:38 56.00070 -3.55619 10988 ft 307 kts 253°
2026-04-23 13:38 55.99503 -3.59468 11271 ft 331 kts 254°
2026-04-23 13:38 55.98929 -3.63514 11812 ft 343 kts 254°
2026-04-23 13:39 55.98344 -3.67675 12550 ft 349 kts 254°
2026-04-23 13:39 55.97743 -3.71919 13326 ft 352 kts 254°
2026-04-23 13:39 55.97144 -3.76129 14043 ft 357 kts 255°
2026-04-23 13:39 55.96523 -3.80465 14694 ft 362 kts 255°
2026-04-23 13:40 55.95885 -3.84882 15353 ft 366 kts 255°
2026-04-23 13:40 55.95241 -3.89306 15998 ft 371 kts 254°
2026-04-23 13:40 55.94591 -3.93760 16610 ft 376 kts 254°
2026-04-23 13:40 55.93840 -3.98222 17244 ft 379 kts 246°
2026-04-23 13:41 55.92521 -4.02310 17899 ft 382 kts 232°
2026-04-23 13:41 55.90647 -4.05626 18554 ft 384 kts 216°
2026-04-23 13:41 55.88433 -4.08354 19156 ft 387 kts 214°
2026-04-23 13:41 55.86193 -4.11085 19735 ft 390 kts 214°
2026-04-23 13:42 55.83951 -4.13828 20344 ft 393 kts 214°
2026-04-23 13:42 55.81692 -4.16594 20942 ft 395 kts 214°